DW0326 Weather Reports


Display with metric or nautical units.
time (UTC)temp
F
wind
direction
speed
MPH
gust
MPH
rain 1hr
in
rain 24hr
in
rain mn
in
humidity
%
barometer
mb
20240521093452 81 182 1.0 8.0 0.00 0.00 0.00 92 1005.3
20240521091652 81 177 2.0 7.0 0.00 0.00 0.00 92 1005.0
20240521090752 81 184 1.0 14.0 0.00 0.00 0.00 92 1005.0
20240521085852 81 183 3.0 10.0 0.00 0.00 0.00 92 1004.9
20240521084052 81 171 1.0 6.0 0.00 0.00 0.00 92 1005.0
20240521083152 81 162 1.0 6.0 0.00 0.00 0.00 92 1005.0
20240521082252 81 177 2.0 7.0 0.00 0.00 0.00 92 1005.0
20240521081352 81 183 2.0 10.0 0.00 0.00 0.00 92 1005.0
20240521080452 81 177 3.0 10.0 0.00 0.00 0.00 92 1005.3
20240521075552 81 174 1.0 6.0 0.00 0.00 0.00 91 1005.3
20240521074652 81 171 2.0 10.0 0.00 0.00 0.00 91 1005.4
20240521073753 81 162 1.0 4.0 0.00 0.00 0.00 91 1005.4
20240521072852 81 172 1.0 5.0 0.00 0.00 0.00 92 1005.4
20240521071952 81 173 0.0 5.0 0.00 0.00 0.00 92 1005.4
20240521071052 80 173 1.0 6.0 0.00 0.00 0.00 91 1005.4
20240521070152 80 173 1.0 9.0 0.00 0.00 0.00 92 1005.6
20240521065252 80 157 1.0 4.0 0.00 0.00 0.00 92 1005.6
20240521064352 80 156 1.0 5.0 0.00 0.00 0.00 92 1005.9
20240521063452 80 160 1.0 5.0 0.00 0.00 0.00 91 1006.2
20240521062552 81 169 1.0 10.0 0.00 0.00 0.00 91 1006.2
20240521061652 81 174 1.0 7.0 0.00 0.00 0.00 91 1006.5
20240521060752 81 172 2.0 12.0 0.00 0.00 0.00 91 1006.5
20240521055851 81 181 1.0 7.0 0.00 0.00 0.00 91 1006.5
20240521054951 81 184 1.0 7.0 0.00 0.00 0.00 91 1006.5
20240521054052 81 145 1.0 7.0 0.00 0.00 0.00 91 1006.5
20240521053152 81 156 2.0 11.0 0.00 0.00 0.00 90 1006.7
20240521052252 81 163 1.0 7.0 0.00 0.00 0.00 90 1006.7
20240521051352 81 181 1.0 11.0 0.00 0.00 0.00 90 1007.0
20240521050452 81 134 0.0 6.0 0.00 0.00 0.00 90 1006.8
20240521045552 81 150 1.0 4.0 0.00 0.00 0.00 90 1006.8
20240521044651 81 153 1.0 5.0 0.00 0.00 0.00 90 1006.8
20240521043751 81 149 1.0 4.0 0.00 0.00 0.00 89 1006.8
20240521042851 81 148 1.0 7.0 0.00 0.00 0.00 89 1006.9
20240521041952 81 105 0.0 5.0 0.00 0.00 0.00 89 1007.0
20240521041052 81 121 1.0 7.0 0.00 0.00 0.00 89 1007.0
20240521040151 81 151 0.0 2.0 0.00 0.00 0.00 89 1007.0
20240521035252 81 147 1.0 5.0 0.00 0.00 0.00 89 1007.0
20240521034352 81 57 0.0 4.0 0.00 0.00 0.00 89 1006.9
20240521033452 81 86 1.0 5.0 0.00 0.00 0.00 88 1007.0
20240521032552 81 152 1.0 11.0 0.00 0.00 0.00 88 1007.0
20240521030752 81 122 1.0 5.0 0.00 0.00 0.00 88 1006.9
20240521025852 81 110 0.0 5.0 0.00 0.00 0.00 87 1006.7
20240521024952 81 136 1.0 7.0 0.00 0.00 0.00 87 1006.5
20240521024051 81 167 1.0 7.0 0.00 0.00 0.00 87 1006.5
20240521023151 82 138 1.0 5.0 0.00 0.00 0.00 86 1006.4
20240521022251 82 139 1.0 6.0 0.00 0.00 0.00 86 1006.4
20240521021351 82 139 2.0 8.0 0.00 0.00 0.00 85 1006.4
20240521020451 82 113 1.0 6.0 0.00 0.00 0.00 85 1006.3
20240521015551 82 102 1.0 5.0 0.00 0.00 0.00 84 1006.3
20240521014651 82 105 0.0 3.0 0.00 0.00 0.00 83 1006.3
20240521013751 83 104 1.0 5.0 0.00 0.00 0.00 83 1006.3
20240521012851 83 109 1.0 5.0 0.00 0.00 0.00 83 1006.1
20240521011951 83 130 1.0 5.0 0.00 0.00 0.00 83 1006.0
20240521011052 83 121 1.0 5.0 0.00 0.00 0.00 81 1006.0
20240521010151 84 133 1.0 5.0 0.00 0.00 0.00 80 1005.9
20240521005253 84 109 1.0 6.0 0.00 0.00 0.00 80 1005.9
20240521003451 85 102 0.0 4.0 0.00 0.00 0.00 77 1005.5
20240521001651 86 125 1.0 5.0 0.00 0.00 0.00 76 1005.4
20240521000751 86 116 0.0 7.0 0.00 0.00 0.00 75 1005.4
20240520235851 86 158 1.0 9.0 0.00 0.00 0.00 74 1005.4
20240520234051 87 128 1.0 10.0 0.00 0.00 0.00 72 1005.4
20240520233151 88 157 1.0 10.0 0.00 0.00 0.00 71 1005.4
20240520232251 88 123 1.0 6.0 0.00 0.00 0.00 71 1005.4
20240520231351 88 131 1.0 5.0 0.00 0.00 0.00 70 1005.4
20240520230451 89 112 1.0 6.0 0.00 0.00 0.00 71 1005.4
20240520225551 92 107 1.0 6.0 0.00 0.00 0.00 63 1005.4
20240520224651 92 126 1.0 6.0 0.00 0.00 0.00 63 1005.4
20240520223751 92 116 1.0 7.0 0.00 0.00 0.00 63 1005.4
20240520222851 92 111 1.0 5.0 0.00 0.00 0.00 63 1005.4
20240520221951 92 116 1.0 7.0 0.00 0.00 0.00 63 1005.4
20240520221051 92 161 0.0 5.0 0.00 0.00 0.00 63 1005.4
20240520220151 92 136 0.0 4.0 0.00 0.00 0.00 63 1005.5
20240520215251 93 136 1.0 10.0 0.00 0.00 0.00 63 1005.5
20240520214351 93 124 1.0 9.0 0.00 0.00 0.00 63 1005.7
20240520213451 93 181 1.0 9.0 0.00 0.00 0.00 63 1005.6
20240520212552 93 87 0.0 5.0 0.00 0.00 0.00 64 1005.6
20240520211651 92 95 0.0 3.0 0.00 0.00 0.00 64 1006.0
20240520210751 92 156 1.0 3.0 0.00 0.00 0.00 64 1005.9
20240520205851 92 164 1.0 5.0 0.00 0.00 0.00 64 1006.2
20240520204951 92 186 1.0 5.0 0.00 0.00 0.00 64 1006.5
20240520204051 92 98 1.0 6.0 0.00 0.00 0.00 64 1006.5
20240520202251 92 158 1.0 10.0 0.00 0.00 0.00 64 1006.5
20240520200451 92 139 1.0 7.0 0.00 0.00 0.00 64 1006.9
20240520195551 92 88 1.0 9.0 0.00 0.00 0.00 64 1006.9
20240520194651 93 83 0.0 4.0 0.00 0.00 0.00 61 1007.0
20240520193751 94 150 1.0 10.0 0.00 0.00 0.00 62 1007.0
20240520192851 93 171 0.0 10.0 0.00 0.00 0.00 54 1007.5
20240520191951 93 165 2.0 10.0 0.00 0.00 0.00 57 1007.5
20240520191051 93 153 1.0 7.0 0.00 0.00 0.00 58 1007.5
20240520190151 93 150 1.0 5.0 0.00 0.00 0.00 56 1007.5
20240520185251 92 150 1.0 5.0 0.00 0.00 0.00 56 1007.5
20240520183451 92 142 1.0 7.0 0.00 0.00 0.00 60 1007.8
20240520182551 92 141 1.0 5.0 0.00 0.00 0.00 62 1007.8
20240520181651 91 168 0.0 3.0 0.00 0.00 0.00 65 1008.0
20240520175851 90 170 0.0 3.0 0.00 0.00 0.00 63 1008.1
20240520174952 90 169 1.0 7.0 0.00 0.00 0.00 64 1008.2
20240520174051 90 159 1.0 6.0 0.00 0.00 0.00 66 1008.2
20240520173151 89 160 0.0 4.0 0.00 0.00 0.00 66 1008.4
20240520172251 89 159 1.0 2.0 0.00 0.00 0.00 67 1008.4
20240520171351 89 163 1.0 5.0 0.00 0.00 0.00 69 1008.4
20240520170451 89 162 2.0 7.0 0.00 0.00 0.00 65 1008.5
20240520165551 88 157 0.0 6.0 0.00 0.00 0.00 69 1008.5
20240520164651 88 153 2.0 6.0 0.00 0.00 0.00 71 1008.5
20240520163751 87 164 1.0 7.0 0.00 0.00 0.00 70 1008.5
20240520162851 87 196 2.0 9.0 0.00 0.00 0.00 72 1008.5
20240520161051 86 195 1.0 6.0 0.00 0.00 0.00 76 1008.2
20240520160151 86 195 1.0 7.0 0.00 0.00 0.00 75 1008.3
20240520155251 86 195 1.0 7.0 0.00 0.00 0.00 75 1008.3
20240520154352 86 195 2.0 5.0 0.00 0.00 0.00 77 1008.1
20240520153451 85 197 2.0 8.0 0.00 0.00 0.00 76 1008.2
20240520152551 85 199 1.0 6.0 0.00 0.00 0.00 78 1008.2
20240520151651 84 197 1.0 6.0 0.00 0.00 0.00 79 1008.0
20240520150751 83 199 1.0 6.0 0.00 0.00 0.00 82 1008.0
20240520145851 83 201 1.0 5.0 0.00 0.00 0.00 83 1007.9
20240520144951 82 201 2.0 5.0 0.00 0.00 0.00 84 1007.9
20240520144051 81 199 1.0 7.0 0.00 0.00 0.00 87 1007.9
20240520142251 80 189 2.0 6.0 0.00 0.00 0.00 89 1007.9
20240520141351 80 188 3.0 6.0 0.00 0.00 0.00 91 1007.8
20240520140451 79 185 1.0 6.0 0.00 0.00 0.00 93 1007.8
20240520135552 78 182 1.0 7.0 0.00 0.00 0.00 94 1007.8
20240520134651 78 178 1.0 6.0 0.00 0.00 0.00 94 1007.8
20240520133751 77 178 1.0 5.0 0.00 0.00 0.00 95 1007.8
20240520132851 77 178 2.0 6.0 0.00 0.00 0.00 95 1007.8
20240520131951 77 178 0.0 6.0 0.00 0.00 0.00 96 1007.6
20240520124351 76 0 0.0 0.0 0.00 0.00 0.00 96 1007.3
20240520121651 75 0 0.0 0.0 0.00 0.00 0.00 96 1007.0
20240520120751 75 0 0.0 0.0 0.00 0.00 0.00 96 1007.0
20240520115851 75 178 0.0 6.0 0.00 0.00 0.00 96 1006.6
20240520114952 75 178 0.0 6.0 0.00 0.00 0.00 96 1006.5
20240520114051 75 178 1.0 5.0 0.00 0.00 0.00 96 1006.5
20240520113151 74 178 0.0 5.0 0.00 0.00 0.00 96 1006.4
20240520112251 74 0 0.0 0.0 0.00 0.00 0.00 95 1006.4
20240520110451 74 178 0.0 3.0 0.00 0.00 0.00 95 1006.3
20240520105551 75 178 1.0 4.0 0.00 0.00 0.00 94 1006.3
20240520104651 75 178 1.0 5.0 0.00 0.00 0.00 94 1006.4
20240520103751 75 178 1.0 7.0 0.00 0.00 0.00 93 1006.4
20240520102851 75 179 2.0 9.0 0.00 0.00 0.00 85 1006.2
20240520101951 77 182 2.0 6.0 0.00 0.00 0.00 85 1006.2
20240520101051 77 179 1.0 6.0 0.00 0.00 0.00 85 1006.2
20240520100151 77 177 1.0 7.0 0.00 0.00 0.00 85 1006.3
20240520095251 77 176 1.0 6.0 0.00 0.00 0.00 85 1006.3